Weather History for Fallon NAS, NV

Change the Weather History Date:

Wednesday, March 6, 2013

  Actual Average Record
Temperature  
Mean Temperature 44 °F -  
Max Temperature 52 °F 57 °F 76 °F (1972)
Min Temperature 33 °F 27 °F 8 °F (1955)
Degree Days  
Heating Degree Days 21    
Moisture  
Dew Point 20 °F    
Average Humidity 38    
Maximum Humidity 55    
Minimum Humidity 25    
Precipitation  
Precipitation 0.00 in - - ()
Sea Level Pressure  
Sea Level Pressure 29.76 in    
Wind  
Wind Speed 15 mph (WSW)    
Max Wind Speed 32 mph    
Max Gust Speed 44 mph    
Visibility 10 miles    
Events      
Averages and records for this station are not official NWS values.
T = Trace of Precipitation, MM = Missing Value Source: NWS Daily Summary

Daily Weather History Graph

Daily Weather History Graph

Search for Another Location

Airport:

Trip Planner

Search our weather history database for the weather conditions in past years. The results will help you decide how hot, cold, wet, or windy it might be!

Date:

Astronomy

Mar. 06, 2013 Rise Set
Actual Time 6:19 AM PST 5:52 PM PST
Civil Twilight 5:52 AM PST 6:19 PM PST
Nautical Twilight 5:21 AM PST 6:50 PM PST
Astronomical Twilight 4:50 AM PST 7:22 PM PST
Moon 2:31 AM PST (3/6) 12:41 PM PST (3/6)
Length of Visible Light 12h 26m
Length of Day
11h 33m
Waning Crescent, 29% of the Moon is Illuminated
Mar 6
Waning Crescent
Mar 11
New
Mar 19
First Quarter
Mar 27
Full
Apr 2
Last Quarter

Hourly Weather History & Observations

Time (PST) Temp. Windchill Dew Point Humidity Pressure Visibility Wind Dir Wind Speed Gust Speed Precip Events Conditions
12:56 AM 41.0 °F 35.2 °F 26.1 °F 55% 29.65 in 10.0 mi SE 9.2 mph - N/A   Mostly Cloudy
1:56 AM 43.0 °F 37.7 °F 25.0 °F 49% 29.67 in 10.0 mi WSW 9.2 mph - N/A   Overcast
2:56 AM 48.0 °F - 27.0 °F 44% 29.66 in 10.0 mi SW 20.7 mph 27.6 mph N/A   Mostly Cloudy
3:56 AM 45.0 °F 38.9 °F 23.0 °F 42% 29.67 in 10.0 mi SW 12.7 mph - N/A   Clear
4:56 AM 45.0 °F 37.9 °F 23.0 °F 42% 29.68 in 10.0 mi SW 16.1 mph - N/A   Clear
5:56 AM 44.1 °F 37.7 °F 24.1 °F 45% 29.67 in 10.0 mi WSW 12.7 mph - N/A   Scattered Clouds
6:16 AM 42.8 °F 37.0 °F 24.8 °F 49% 29.72 in 10.0 mi WSW 10.4 mph - N/A   Scattered Clouds
6:56 AM 41.0 °F 35.2 °F 24.1 °F 51% 29.68 in 10.0 mi WSW 9.2 mph - N/A   Scattered Clouds
7:56 AM 48.9 °F - 19.0 °F 31% 29.71 in 10.0 mi SW 20.7 mph 31.1 mph N/A   Scattered Clouds
8:56 AM 51.1 °F - 24.1 °F 35% 29.71 in 10.0 mi SW 32.2 mph 40.3 mph N/A   Scattered Clouds
9:56 AM 51.1 °F - 25.0 °F 36% 29.74 in 10.0 mi WSW 32.2 mph 43.7 mph N/A   Scattered Clouds
10:56 AM 50.0 °F - 26.1 °F 39% 29.75 in 10.0 mi West 26.5 mph 34.5 mph N/A   Mostly Cloudy
11:56 AM 48.0 °F - 21.0 °F 34% 29.77 in 10.0 mi West 31.1 mph 41.4 mph N/A   Mostly Cloudy
12:56 PM 51.1 °F - 19.0 °F 28% 29.77 in 10.0 mi WSW 28.8 mph 40.3 mph N/A   Mostly Cloudy
1:56 PM 52.0 °F - 18.0 °F 26% 29.77 in 10.0 mi WSW 24.2 mph 38.0 mph N/A   Mostly Cloudy
2:56 PM 51.1 °F - 16.0 °F 25% 29.79 in 10.0 mi West 19.6 mph 27.6 mph N/A   Mostly Cloudy
3:56 PM 50.0 °F - 16.0 °F 26% 29.80 in 10.0 mi West 12.7 mph - N/A   Overcast
4:56 PM 46.9 °F - 16.0 °F 29% 29.80 in 10.0 mi WNW 20.7 mph - N/A   Mostly Cloudy
5:56 PM 45.0 °F 37.6 °F 15.1 °F 30% 29.82 in 10.0 mi WNW 17.3 mph 23.0 mph N/A   Mostly Cloudy
6:56 PM 43.0 °F 38.2 °F 15.1 °F 32% 29.83 in 10.0 mi NW 8.1 mph - N/A   Mostly Cloudy
7:56 PM 42.1 °F 38.4 °F 12.9 °F 31% 29.84 in 10.0 mi East 5.8 mph - N/A   Mostly Cloudy
8:56 PM 37.9 °F 34.4 °F 15.1 °F 39% 29.85 in 10.0 mi North 4.6 mph - N/A   Mostly Cloudy
9:56 PM 37.0 °F 30.4 °F 17.1 °F 44% 29.87 in 10.0 mi ENE 9.2 mph - N/A   Mostly Cloudy
10:56 PM 36.0 °F 31.1 °F 17.1 °F 46% 29.86 in 10.0 mi NNE 5.8 mph - N/A   Mostly Cloudy
11:56 PM 33.1 °F - 17.1 °F 52% 29.86 in 10.0 mi Calm Calm - N/A   Clear